RH
15 23 24 15 13 11 11 14 17 17 14 13 15 18 18 17 19 33 37 40 44 46 47 46 46 44 44 48 47 49 56 66 65 66 64 58 58 53 50 49 50 55 58 61
19 24 16 12 12 13 13 17 25 18 16 15 16 18 22 20 23 28 33 38 43 47 45 43 48 49 49 49 50 47 48 57 54 50 51 53 52 46 50 52 63 64 65 68
26 17 11 14 22 23 25 28 26 23 20 18 19 22 25 22 23 25 28 33 39 46 50 50 48 48 44 43 43 40 40 41 43 47 49 52 52 54 57 59 63 62 63 65
20 15 16 17 25 24 31 27 26 25 28 34 21 35 28 27 28 30 30 32 39 43 48 52 56 54 50 52 53 55 55 54 54 54 55 55 54 56 62 61 57 58 60 59
20 19 25 29 25 22 28 23 26 27 32 32 33 32 30 27 40 41 38 36 38 41 44 50 50 50 53 53 53 55 57 59 59 59 60 62 64 65 66 66 64 63 64 63
20 20 23 25 21 21 22 27 32 34 38 55 42 37 35 31 38 41 38 37 39 41 44 45 47 52 54 57 58 61 60 61 59 57 61 64 65 66 67 69 70 72 76 80
22 25 24 20 28 24 28 39 65 58 73 62 48 52 59 42 34 37 42 39 39 41 42 44 47 51 54 56 60 59 61 62 62 58 57 61 68 74 76 77 77 76 76 76
40 40 28 24 27 29 32 32 77 60 81 65 36 52 48 37 35 35 37 39 40 41 41 41 44 47 50 51 50 51 52 54 57 58 62 66 66 64 66 68 71 70 70 70
44 38 26 25 23 27 30 48 27 42 63 75 51 43 38 37 41 34 37 37 39 40 40 41 44 45 45 48 52 53 55 56 57 60 62 61 54 52 49 55 61 67 73 74
28 42 24 23 21 28 30 25 49 66 67 62 49 48 61 43 40 37 36 38 38 39 39 42 43 46 49 51 53 54 53 53 58 60 57 52 46 43 47 60 67 69 74 78
36 44 32 21 29 33 36 39 38 42 62 76 82 53 35 40 42 39 38 38 41 40 40 39 42 46 50 53 54 54 53 54 56 51 46 43 40 59 63 64 66 69 60 74
31 39 48 33 25 25 26 33 38 77 58 69 83 60 33 48 45 41 39 36 38 43 43 43 45 49 53 56 55 54 54 55 48 48 45 50 59 61 64 65 71 63 77 71
43 43 68 46 40 34 27 24 24 41 70 64 81 65 29 37 37 38 40 34 46 50 49 54 56 60 59 58 56 55 54 52 51 50 50 54 61 64 63 66 68 52 69 75
46 40 48 63 36 29 28 27 24 31 82 69 68 53 39 57 57 52 53 52 59 61 60 60 61 65 64 60 62 61 53 51 51 50 49 45 56 63 62 70 62 53 70 80
50 56 53 50 37 32 30 33 31 32 34 49 48 41 42 47 56 54 57 58 60 64 66 68 69 67 62 63 65 62 53 52 52 50 48 48 51 55 62 73 64 62 65 79
47 72 58 52 52 50 43 43 44 35 32 37 42 44 51 51 52 61 65 69 75 76 75 71 65 56 56 60 60 60 52 50 55 55 54 50 48 58 66 71 54 60 75 79
68 76 86 85 77 76 74 50 37 35 37 38 48 49 53 63 70 73 75 75 76 77 69 70 56 53 50 45 43 53 51 50 59 62 64 62 64 63 86 76 83 69 74 74
74 84 96 89 84 56 48 35 41 46 46 48 59 66 68 68 74 71 77 76 66 56 52 45 43 42 43 48 50 42 42 42 44 48 51 62 70 83 90 97 81 76 76 72
64 90 97 95 94 63 47 39 46 52 65 66 75 76 78 74 66 90 78 57 51 51 49 48 49 40 33 34 35 36 37 38 38 44 47 55 60 84 98 98 95 94 90 59
75 81 85 92 91 85 59 43 37 37 76 72 75 82 83 65 88 82 65 52 48 46 45 33 29 29 29 33 35 35 35 38 43 48 63 68 68 69 93 90 82 70 61 65
94 87 91 96 90 80 59 40 38 69 74 81 80 82 76 82 81 76 54 49 44 34 31 30 30 30 31 31 33 34 43 46 49 51 56 54 63 73 88 96 80 74 68 67
85 94 92 84 85 95 45 54 62 73 81 81 78 71 76 74 61 53 50 42 35 33 34 35 36 36 38 36 40 44 48 53 55 58 61 53 86 95 92 93 93 89 70 70
80 78 90 78 80 50 50 56 71 67 81 80 76 81 70 67 53 50 42 36 36 36 35 37 39 40 43 46 48 51 56 61 60 64 61 67 97 92 97 95 85 76 74 73
49 51 77 72 54 62 74 78 78 78 77 80 77 62 56 52 49 38 36 37 37 37 39 40 41 52 53 54 59 64 67 69 67 68 70 79 84 95 97 88 86 84 74 85
59 54 58 66 71 83 88 82 84 84 80 68 53 50 49 40 36 36 38 38 39 42 43 47 54 56 56 59 70 79 85 83 84 84 75 98 100 99 99 98 90 86 94 90
61 66 80 84 63 69 88 89 89 75 63 54 52 50 43 36 37 38 39 41 45 46 43 45 52 60 64 75 84 92 100 99 96 95 88 98 99 100 98 92 89 92 94 92
Wind_Speed
10 4 2 4 3 3 3 4 9 5 5 3 4 4 6 8 20 30 29 32 29 26 19 19 19 17 13 8 4 6 6 5 8 3 4 5 8 5 4 9 13 15 13 15
3 4 5 3 2 3 6 6 5 4 5 4 3 1 7 13 13 30 31 29 27 22 16 14 9 7 4 2 2 3 6 7 3 3 4 8 11 7 3 5 5 8 12 13
7 3 2 4 7 10 9 6 6 4 6 3 3 2 6 7 26 26 26 25 23 21 18 16 15 14 11 9 7 4 3 4 3 3 5 7 6 7 10 11 14 15 15 15
6 5 4 5 8 8 5 7 6 6 5 3 3 3 4 8 8 15 24 25 24 20 17 13 11 10 9 9 6 7 8 12 13 13 14 12 13 14 15 17 20 21 23 23
1 4 7 9 4 4 2 3 4 4 4 3 8 1 5 12 11 10 20 24 21 18 13 9 6 8 9 9 8 6 6 10 13 15 17 17 14 14 14 14 16 18 19 21
5 11 4 4 3 2 5 4 6 5 3 2 6 4 2 9 12 9 18 21 19 17 14 8 6 7 8 8 9 9 5 6 8 8 8 9 12 13 14 16 18 21 24 25
3 4 4 3 4 2 3 5 4 4 4 4 4 8 6 11 13 17 18 23 18 15 12 13 10 9 7 5 5 3 4 8 12 15 16 15 15 14 15 18 21 24 26 30
5 1 4 5 4 2 4 3 4 0 1 4 7 4 1 10 22 21 19 19 16 11 7 8 8 6 5 4 6 11 13 14 11 12 13 15 17 17 16 19 20 24 29 32
3 3 4 6 4 3 6 4 2 3 5 3 1 4 5 9 8 18 16 15 14 14 8 5 5 4 7 7 5 5 5 8 11 15 17 19 18 20 22 23 24 24 22 22
3 4 2 4 1 2 4 2 5 3 1 2 4 3 3 3 7 7 10 10 7 1 3 3 2 3 1 3 6 10 13 14 14 15 20 22 24 26 24 23 22 24 25 27
4 4 3 2 4 4 4 3 4 2 5 4 1 3 4 8 10 7 12 11 6 5 6 2 2 4 6 7 10 10 12 16 18 18 21 26 25 19 21 24 26 27 31 25
3 3 3 4 3 3 1 3 4 4 4 1 4 5 7 8 15 15 7 9 9 7 7 6 7 9 8 8 11 14 18 23 17 22 27 23 22 22 25 26 25 30 24 21
3 2 3 3 4 4 1 2 2 4 4 5 5 5 4 11 4 8 12 9 17 21 15 13 10 10 11 15 20 23 20 17 21 24 21 22 22 23 27 29 24 28 21 18
3 2 5 5 2 1 2 5 4 2 3 4 6 6 9 5 2 14 19 21 18 16 15 15 18 19 22 26 18 15 17 19 22 26 23 24 23 26 30 24 23 27 21 19
3 2 4 5 6 4 3 5 7 5 6 3 7 3 6 10 9 14 17 16 15 16 17 19 17 20 22 18 13 16 17 24 28 27 27 25 25 30 28 26 21 21 17 15
4 1 3 3 7 7 4 8 8 4 2 3 4 4 14 15 17 20 16 14 13 12 15 19 20 21 17 17 17 19 25 29 25 24 28 29 30 30 31 25 18 16 17 18
3 3 3 3 5 6 4 3 4 3 5 3 3 3 12 15 16 15 13 12 13 15 20 19 18 15 18 20 22 25 25 30 31 29 28 33 25 24 22 16 17 18 14 16
4 4 3 2 4 3 4 5 7 5 7 7 10 11 15 14 11 8 10 15 16 18 17 17 18 20 22 22 20 19 21 23 25 28 29 24 26 24 24 19 14 12 15 15
5 4 3 3 1 6 6 2 3 4 2 6 7 9 10 11 1 5 12 13 13 12 14 18 21 21 18 21 25 28 30 32 34 28 32 33 31 30 18 14 11 14 13 15
7 6 4 2 4 6 6 4 4 0 3 5 10 8 10 14 5 4 13 11 14 16 18 18 19 20 25 24 26 31 33 32 24 29 26 30 32 27 16 19 17 8 13 14
3 1 4 2 3 7 8 0 4 4 5 10 7 4 4 2 3 10 9 13 15 17 19 20 22 25 23 27 31 33 26 23 27 31 31 37 33 28 21 7 10 9 11 14
7 6 4 2 2 7 10 5 6 5 11 10 3 2 1 2 2 7 10 14 16 17 20 23 23 23 26 31 28 24 27 24 28 32 35 36 29 12 10 14 9 11 15 17
2 7 6 8 6 8 8 7 10 10 13 3 1 3 1 1 4 7 11 13 17 21 24 21 23 29 29 28 24 30 24 26 32 35 32 29 17 21 13 10 10 11 16 20
3 11 3 4 6 8 17 16 12 9 5 4 5 3 1 3 7 10 12 15 19 20 20 26 29 27 28 29 31 28 29 31 36 31 31 23 22 13 8 9 13 16 19 17
6 3 1 2 7 14 11 12 8 1 1 6 7 4 2 4 9 8 12 17 17 19 25 27 27 30 34 36 34 27 26 26 29 27 30 21 15 11 8 12 17 14 14 17
5 5 4 5 6 5 8 12 3 1 9 8 4 1 4 6 7 12 15 15 19 25 26 28 30 33 33 34 32 29 26 29 25 28 25 10 8 9 13 15 13 11 14 16
Wind_Direction
220 76 120 136 45 328 331 15 84 90 74 78 319 111 103 75 85 83 86 91 86 85 94 97 104 112 113 136 157 167 191 233 247 128 180 191 196 199 235 301 308 299 295 297
4 80 2 103 82 0 0 30 31 96 99 85 329 67 113 83 96 108 105 101 97 90 79 76 77 73 75 95 159 245 264 279 292 236 234 260 260 273 324 284 271 299 289 283
114 151 332 6 48 30 22 81 30 30 347 335 306 109 111 99 93 96 105 108 104 99 89 84 89 95 104 99 77 53 0 350 25 269 262 273 270 250 242 252 286 308 306 301
86 25 9 43 53 35 41 21 14 343 12 255 142 239 187 145 113 97 99 105 110 103 94 88 87 90 90 92 79 66 21 358 347 335 331 322 309 303 297 299 299 293 291 294
95 83 19 67 66 38 145 347 272 267 280 307 298 140 226 141 123 114 107 104 114 116 115 108 72 60 53 45 39 63 52 25 7 350 340 337 328 318 316 307 296 293 290 290
98 77 53 345 321 223 275 283 262 219 179 14 305 203 97 162 148 133 124 122 118 118 118 115 106 86 57 36 11 5 344 334 342 355 352 336 320 313 305 306 301 303 307 307
136 106 155 335 314 56 5 30 355 28 9 219 322 69 353 357 146 136 126 129 130 133 134 133 135 120 104 87 83 29 348 323 317 309 306 307 310 313 317 316 311 308 310 309
143 105 358 356 65 349 304 79 130 77 44 294 323 65 111 69 79 115 123 127 139 151 156 163 152 175 208 259 284 302 305 304 302 306 311 311 311 319 319 313 307 308 307 308
92 108 69 56 1 39 322 44 159 96 9 43 224 94 59 110 108 117 149 174 172 158 169 185 189 247 277 292 297 276 276 282 284 289 294 300 306 308 310 304 304 307 306 306
23 106 62 153 191 342 84 223 49 4 91 304 338 88 208 152 168 180 165 149 118 207 174 157 193 122 137 267 281 302 307 296 286 286 295 301 306 310 306 305 303 304 308 308
19 95 231 76 41 51 9 23 15 70 120 169 17 282 176 65 56 37 86 100 165 64 14 355 20 333 329 321 318 306 302 301 291 292 303 308 314 316 303 301 303 308 312 314
12 123 86 118 95 41 350 67 77 108 296 63 136 276 83 90 56 21 47 42 9 12 341 32 16 2 344 334 326 315 310 299 305 317 320 323 317 306 304 300 296 319 313 314
351 9 59 22 7 332 283 122 143 129 92 180 132 259 352 83 350 340 357 21 49 68 55 50 49 33 360 343 334 317 312 318 321 319 321 318 312 308 307 301 312 331 321 327
18 54 138 174 171 119 345 334 350 85 117 217 217 243 273 134 176 63 55 53 52 36 21 1 346 331 321 322 317 311 320 317 311 314 309 315 305 295 299 299 323 330 319 316
73 107 30 4 351 335 344 340 331 308 262 193 262 221 66 68 92 80 64 45 26 12 360 350 339 329 330 331 329 329 310 312 315 310 308 309 300 294 286 293 304 317 310 305
33 98 58 319 23 18 321 301 276 252 353 8 39 3 109 88 63 67 57 52 42 7 342 341 340 340 348 346 329 317 315 315 311 300 302 306 305 285 295 292 306 302 295 296
85 106 75 267 355 346 10 236 316 322 10 327 36 33 64 57 73 64 58 27 355 350 348 342 346 352 341 333 325 308 311 317 309 314 315 309 313 298 292 279 301 296 296 297
114 87 89 221 0 25 235 289 96 87 30 11 76 67 64 57 101 75 17 357 351 352 352 358 354 339 327 326 331 333 329 334 336 326 324 313 312 295 278 292 288 293 285 306
137 116 71 113 219 299 328 28 80 103 85 54 88 75 61 20 201 132 357 356 1 1 352 337 334 344 352 339 333 333 330 328 332 331 331 329 330 319 301 271 274 286 307 322
55 88 108 80 136 210 218 117 87 337 238 69 90 63 13 9 23 287 339 0 359 350 346 355 344 336 337 339 333 332 330 330 330 332 333 331 328 327 305 322 308 303 324 303
61 16 162 182 211 281 249 312 89 108 230 127 108 66 11 104 235 310 353 349 346 345 336 331 332 335 331 325 329 330 329 330 320 316 320 323 326 312 310 313 307 318 299 305
162 154 188 192 232 277 204 85 150 158 133 130 85 352 245 294 355 349 340 332 337 341 340 338 336 326 326 330 331 322 326 323 316 320 326 330 324 319 305 273 281 297 301 313
140 184 178 180 213 225 180 160 172 199 158 151 81 182 309 132 330 326 331 337 336 336 337 333 326 331 334 331 328 325 319 313 318 321 329 333 333 329 305 307 299 295 312 315
309 192 194 110 253 152 145 156 165 157 155 309 290 170 130 292 318 340 334 335 334 332 326 325 329 331 327 320 322 323 317 313 317 322 326 323 326 321 299 290 297 308 315 317
220 329 222 278 110 108 151 170 155 87 277 153 127 128 277 339 334 332 334 334 329 322 325 326 324 319 316 316 318 322 315 309 311 316 324 325 325 299 302 309 316 317 318 321
205 201 160 231 210 182 179 179 168 106 139 128 151 244 321 315 320 323 326 321 317 320 325 325 319 318 318 315 310 313 307 315 308 321 326 326 317 313 314 318 318 312 315 323